Location: Kimberly
(42.5380°N, 114.3640°W)
Time: 12:30:12
(UTC-06:00)

N. Korean satellite - Visible Passes

Search period start: 22 September 2018 00:00
Search period end: 02 October 2018 00:00
Orbit: 458 x 511 km, 97.2° (Epoch: 21 September)

Date Brightness Start Highest point End Pass type
(mag) Time Alt. Az. Time Alt. Az. Time Alt. Az.
24 Sep 10.6 20:29:25 10° W 20:29:48 10° W 20:30:11 10° W visible
25 Sep 9.7 20:02:35 10° SW 20:05:15 20° W 20:07:58 10° NW visible
28 Sep 10.3 20:24:32 10° WSW 20:25:49 12° W 20:27:06 10° WNW visible
29 Sep 9.5 19:58:24 10° SSW 20:01:15 22° W 20:04:10 10° NW visible
01 Oct 10.3 07:00:39 10° ENE 07:02:43 14° E 07:04:45 10° SE visible
